Tracking 33484 objects as of 16-Mar-2026
HD Live streaming from Space Station
objects crossing your sky now

LEMUR-2 GRAM-E-SUE

Track LEMUR-2 GRAM-E-SUE now!
10-day predictions
LEMUR-2 GRAM-E-SUE is classified as:


NORAD ID: 67370
Int'l Code: 2026-004H
Perigee: 605.5 km
Apogee: 617.9 km
Inclination: 97.8 °
Period: 96.8 minutes
Semi major axis: 6982 km
RCS: Unknown
Launch date: January 11, 2026
Source: United States (US)
Launch site: AIR FORCE WESTERN TEST RANGE (AFWTR)
Your satellite tracking list
Your tracking list is empty




NASA's NSSDC Master Catalog

Two Line Element Set (TLE):
1 67370U 26004H   26074.71023894  .00004402  00000-0  48640-3 0  9993
2 67370  97.7971  74.7720 0008885  92.6275 267.5959 14.87889483  9396
Source of the keplerian elements: AFSPC